2023/01/28 00:00:00,55.9,-2.4
2023/01/28 00:10:00,56.1,-2.2
2023/01/28 00:20:00,56.3,-2.3
2023/01/28 00:30:00,57.0,-2.4
2023/01/28 00:40:00,57.8,-2.2
2023/01/28 00:50:00,59.0,-2.3
2023/01/28 01:00:00,59.7,-2.5
2023/01/28 01:10:00,60.7,-2.4
2023/01/28 01:20:00,61.7,-2.5
2023/01/28 01:30:00,62.1,-2.5
2023/01/28 01:40:00,63.0,-2.3
2023/01/28 01:50:00,64.1,-2.3
2023/01/28 02:00:00,65.1,-2.3
2023/01/28 02:10:00,65.4,-2.6
2023/01/28 02:20:00,65.6,-2.5
2023/01/28 02:30:00,65.4,-2.9
2023/01/28 02:40:00,65.9,-2.7
2023/01/28 02:50:00,66.6,-2.7
2023/01/28 03:00:00,67.1,-2.7
2023/01/28 03:10:00,67.5,-2.4
2023/01/28 03:20:00,68.2,-2.7
2023/01/28 03:30:00,69.2,-2.8
2023/01/28 03:40:00,70.2,-2.8
2023/01/28 03:50:00,70.8,-2.8
2023/01/28 04:00:00,71.5,-2.9
2023/01/28 04:10:00,72.0,-2.7
2023/01/28 04:20:00,72.1,-2.4
2023/01/28 04:30:00,72.2,-3.2
2023/01/28 04:40:00,72.1,-2.5
2023/01/28 04:50:00,72.3,-2.8
2023/01/28 05:00:00,72.9,-2.6
2023/01/28 05:10:00,73.4,-2.7
2023/01/28 05:20:00,74.0,-2.8
2023/01/28 05:30:00,74.1,-2.9
2023/01/28 05:40:00,73.9,-2.8
2023/01/28 05:50:00,74.2,-2.8
2023/01/28 06:00:00,74.4,-2.7
2023/01/28 06:10:00,75.0,-3.0
2023/01/28 06:20:00,76.2,-3.0
2023/01/28 06:30:00,76.9,-2.8
2023/01/28 06:40:00,77.2,-2.9
2023/01/28 06:50:00,77.6,-2.9
2023/01/28 07:00:00,78.2,-2.7
2023/01/28 07:10:00,79.1,-3.0
2023/01/28 07:20:00,79.9,-2.9
2023/01/28 07:30:00,80.8,-2.6
2023/01/28 07:40:00,82.1,-2.4
2023/01/28 07:50:00,83.3,-2.7
2023/01/28 08:00:00,83.6,-2.6
2023/01/28 08:10:00,83.8,-2.2
2023/01/28 08:20:00,83.7,-1.2
2023/01/28 08:30:00,84.0,-2.3
2023/01/28 08:40:00,84.6,-2.8
2023/01/28 08:50:00,84.8,-2.6
2023/01/28 09:00:00,84.8,-2.4
2023/01/28 09:10:00,84.9,-2.1
2023/01/28 09:20:00,85.2,-2.0
2023/01/28 09:30:00,86.0,-2.3
2023/01/28 09:40:00,86.9,-2.6
2023/01/28 09:50:00,88.3,-2.4
2023/01/28 10:00:00,89.5,-1.8
2023/01/28 10:10:00,90.0,-1.3
2023/01/28 10:20:00,90.3,-1.2
2023/01/28 10:30:00,90.0,-1.4
2023/01/28 10:40:00,90.0,-1.6
2023/01/28 10:50:00,90.3,-2.1
2023/01/28 11:00:00,91.1,-1.7
2023/01/28 11:10:00,92.8, 0.0
2023/01/28 11:20:00,93.3, 2.2
2023/01/28 11:30:00,93.3, 2.1
2023/01/28 11:40:00,93.1, 1.9
2023/01/28 11:50:00,93.0, 1.9
2023/01/28 12:00:00,92.9, 0.6
2023/01/28 12:10:00,93.0,-1.3
2023/01/28 12:20:00,94.4,-1.2
2023/01/28 12:30:00,96.0,-0.7
2023/01/28 12:40:00,97.1, 0.9
2023/01/28 12:50:00,97.6, 0.8
2023/01/28 13:00:00,97.6,-1.4
2023/01/28 13:10:00,98.1,-0.6
2023/01/28 13:20:00,98.9, 0.3
2023/01/28 13:30:00,98.6,-0.4
2023/01/28 13:40:00,98.6,-0.3
2023/01/28 13:50:00,98.8,-1.1
2023/01/28 14:00:00,99.6,-1.8
2023/01/28 14:10:00,100.8,-2.0
2023/01/28 14:20:00,102.6,-2.0
2023/01/28 14:30:00,104.0,-2.1
2023/01/28 14:40:00,105.3,-2.4
2023/01/28 14:50:00,105.9,-2.0
2023/01/28 15:00:00,106.2,-1.5
2023/01/28 15:10:00,106.2,-2.1
2023/01/28 15:20:00,105.5,-1.7
2023/01/28 15:30:00,105.1,-1.7
2023/01/28 15:40:00,104.8,-1.1
2023/01/28 15:50:00,104.5,-0.7
2023/01/28 16:00:00,104.1,-1.1
2023/01/28 16:10:00,103.8,-1.0
2023/01/28 16:20:00,103.4,-1.4
2023/01/28 16:30:00,103.1,-1.9
2023/01/28 16:40:00,103.0,-1.8
2023/01/28 16:50:00,102.9,-2.6
2023/01/28 17:00:00,102.7,-2.3
2023/01/28 17:10:00,102.4,-2.8
2023/01/28 17:20:00,102.1,-2.9
2023/01/28 17:30:00,102.0,-2.6
2023/01/28 17:40:00,101.9,-2.9
2023/01/28 17:50:00,101.7,-2.9
2023/01/28 18:00:00,101.4,-3.2
2023/01/28 18:10:00,101.1,-3.2
2023/01/28 18:20:00,101.0,-3.5
2023/01/28 18:30:00,100.9,-3.5
2023/01/28 18:40:00,100.7,-3.6
2023/01/28 18:50:00,101.3,-3.9
2023/01/28 19:00:00,101.5,-4.1
2023/01/28 19:10:00,101.7,-3.9
2023/01/28 19:20:00,101.8,-4.1
2023/01/28 19:30:00,101.6,-3.3
2023/01/28 19:40:00,101.9,-3.9
2023/01/28 19:50:00,101.7,-4.0
2023/01/28 20:00:00,101.6,-3.9
2023/01/28 20:10:00,101.4,-3.9
2023/01/28 20:20:00,101.6,-3.9
2023/01/28 20:30:00,101.6,-4.1
2023/01/28 20:40:00,101.5,-4.0
2023/01/28 20:50:00,101.8,-3.9
2023/01/28 21:00:00,101.7,-4.1
2023/01/28 21:10:00,101.6,-4.0
2023/01/28 21:20:00,101.8,-3.8
2023/01/28 21:30:00,102.1,-3.8
2023/01/28 21:40:00,101.9,-3.7
2023/01/28 21:50:00,101.9,-3.8
2023/01/28 22:00:00,102.2,-3.9
2023/01/28 22:10:00,102.4,-3.5
2023/01/28 22:20:00,102.3,-3.6
2023/01/28 22:30:00,102.1,-3.5
2023/01/28 22:40:00,101.9,-3.8
2023/01/28 22:50:00,101.8,-3.9
2023/01/28 23:00:00,102.4,-4.0
2023/01/28 23:10:00,103.4,-4.2
2023/01/28 23:20:00,103.6,-3.8
2023/01/28 23:30:00,103.7,-4.0
2023/01/28 23:40:00,104.5,-4.0
2023/01/28 23:50:00,105.0,-3.6
